DW3384 Weather Reports


time (UTC)temp
F
wind
direction
speed
knots
gust
knots
rain 1hr
in
rain 24hr
in
rain mn
in
humidity
%
barometer
mb
20260903154548 83 180 3.5 7.8 0.00 0.00 0.00 54 1003.7
20260903153046 83 205 5.2 10.4 0.00 0.00 0.00 55 1003.5
20260903151546 82 166 6.1 9.6 0.00 0.00 0.00 57 1003.6
20260903150045 81 166 2.6 10.4 0.00 0.00 0.00 58 1003.7
20260903144544 81 145 6.1 9.6 0.00 0.00 0.00 59 1003.5
20260903143102 79 145 6.1 9.6 0.00 0.00 0.00 62 1003.8
20260903141541 79 173 5.2 12.2 0.00 0.00 0.00 61 1003.9
20260903140039 79 195 6.1 12.2 0.00 0.00 0.00 61 1003.9
20260903134538 79 97 7.0 13.9 0.00 0.00 0.00 61 1003.8
20260903133036 78 161 7.0 15.6 0.00 0.00 0.00 61 1003.7
20260903131538 78 181 7.0 16.5 0.00 0.00 0.00 61 1003.5
20260903130034 78 193 8.7 13.0 0.00 0.00 0.00 62 1003.5
20260903124535 77 169 9.6 15.6 0.00 0.00 0.00 62 1003.5
20260903123038 77 185 6.1 11.3 0.00 0.00 0.00 61 1003.5
20260903121533 78 196 4.3 8.7 0.00 0.00 0.00 61 1003.4
20260903120024 78 155 2.6 10.4 0.00 0.00 0.00 59 1003.4
20260903114524 79 192 7.0 13.9 0.00 0.00 0.00 59 1003.3
20260903113034 79 145 5.2 13.9 0.00 0.00 0.00 58 1003.1
20260903111520 80 159 7.0 16.5 0.00 0.00 0.00 57 1003.1
20260903110018 80 196 8.7 15.6 0.00 0.00 0.00 56 1003.0
20260903104515 80 146 7.8 19.1 0.00 0.00 0.00 56 1003.1
20260903103013 80 223 7.0 15.6 0.00 0.00 0.00 57 1003.1
20260903101512 80 194 7.8 17.4 0.00 0.00 0.00 57 1003.2
20260903100014 80 161 8.7 14.8 0.00 0.00 0.00 57 1003.3
20260903094508 80 180 9.6 18.2 0.00 0.00 0.00 56 1003.3
20260903093010 80 138 9.6 20.0 0.00 0.00 0.00 56 1003.3
20260903091515 80 146 10.4 18.2 0.00 0.00 0.00 56 1003.3
20260903090003 80 188 7.8 20.9 0.00 0.00 0.00 55 1003.3
20260903084502 81 148 8.7 16.5 0.00 0.00 0.00 55 1003.4
20260903083059 81 150 9.6 14.8 0.00 0.00 0.00 55 1003.4
20260903081557 81 159 8.7 21.7 0.00 0.00 0.00 54 1003.5
20260903080058 81 164 7.0 17.4 0.00 0.00 0.00 54 1003.7
20260903074552 81 183 7.0 13.9 0.00 0.00 0.00 53 1003.8
20260903073051 82 131 5.2 11.3 0.00 0.00 0.00 53 1003.8
20260903071548 82 105 6.1 13.9 0.00 0.00 0.00 52 1003.8
20260903070048 82 142 5.2 13.0 0.00 0.00 0.00 51 1003.7
20260903064546 82 185 5.2 11.3 0.00 0.00 0.00 51 1003.8
20260903063044 82 71 5.2 14.8 0.00 0.00 0.00 51 1003.7
20260903061552 82 171 6.1 15.6 0.00 0.00 0.00 50 1003.6
20260903060042 82 148 7.8 13.0 0.00 0.00 0.00 49 1003.6
20260903054541 83 78 6.1 13.0 0.00 0.00 0.00 48 1003.5
20260903053038 83 136 6.1 13.9 0.00 0.00 0.00 47 1003.5
20260903051535 84 148 7.0 11.3 0.00 0.00 0.00 45 1003.4
20260903050034 84 132 5.2 9.6 0.00 0.00 0.00 44 1003.4
20260903043011 85 126 7.0 13.9 0.00 0.00 0.00 42 1003.2
20260903041511 86 134 7.0 14.8 0.00 0.00 0.00 42 1003.1
20260903040010 86 126 7.0 14.8 0.00 0.00 0.00 41 1003.3
20260903034509 86 156 5.2 13.9 0.00 0.00 0.00 41 1003.1
20260903033009 86 148 6.1 13.9 0.00 0.00 0.00 40 1003.2
20260903031509 86 128 4.3 12.2 0.00 0.00 0.00 40 1003.1
20260903030011 86 115 6.1 12.2 0.00 0.00 0.00 40 1002.9
20260903024507 87 103 6.1 12.2 0.00 0.00 0.00 40 1002.7
20260903023007 87 109 6.1 11.3 0.00 0.00 0.00 39 1002.5
20260903021508 88 124 4.3 8.7 0.00 0.00 0.00 38 1002.4
20260903020006 89 186 5.2 11.3 0.00 0.00 0.00 37 1002.2
20260903014504 89 161 6.1 10.4 0.00 0.00 0.00 36 1002.1
20260903013004 90 128 5.2 10.4 0.00 0.00 0.00 36 1001.9
20260903011504 91 173 5.2 8.7 0.00 0.00 0.00 36 1001.8
20260903010003 91 130 5.2 10.4 0.00 0.00 0.00 35 1001.9
20260903004503 92 135 4.3 13.0 0.00 0.00 0.00 34 1001.9
20260903003003 93 156 4.3 9.6 0.00 0.00 0.00 31 1001.8
20260903001502 94 157 4.3 9.6 0.00 0.00 0.00 30 1002.0
20260903000001 95 140 4.3 10.4 0.00 0.00 0.00 29 1002.0
20260902234502 95 188 6.1 9.6 0.00 0.00 0.00 29 1001.9
20260902233100 97 135 4.3 12.2 0.00 0.00 0.00 29 1001.8
20260902233003 97 198 5.2 12.2 0.00 0.00 0.00 28 1001.9
20260902231602 97 164 6.1 13.9 0.00 0.00 0.00 29 1001.9
20260902230059 97 179 6.1 13.0 0.00 0.00 0.00 28 1002.1
20260902224558 97 198 4.3 12.2 0.00 0.00 0.00 29 1002.1
20260902223105 98 142 6.1 11.3 0.00 0.00 0.00 28 1002.1
20260902221557 98 226 6.1 10.4 0.00 0.00 0.00 27 1002.2
20260902220056 99 175 5.2 13.0 0.00 0.00 0.00 27 1002.1
20260902214555 99 92 3.5 9.6 0.00 0.00 0.00 28 1002.0
20260902213052 99 170 5.2 13.0 0.00 0.00 0.00 27 1002.3
20260902211552 99 91 5.2 10.4 0.00 0.00 0.00 27 1002.5
20260902210048 99 160 1.7 10.4 0.00 0.00 0.00 26 1002.7
20260902204547 99 144 3.5 9.6 0.00 0.00 0.00 26 1003.0
20260902203040 99 236 4.3 16.5 0.00 0.00 0.00 27 1003.3
20260902201545 98 213 4.3 10.4 0.00 0.00 0.00 27 1003.5
20260902200035 98 168 6.1 13.9 0.00 0.00 0.00 28 1003.7
20260902194532 97 179 5.2 11.3 0.00 0.00 0.00 29 1004.0
20260902193030 98 224 3.5 9.6 0.00 0.00 0.00 28 1004.1
20260902191529 97 142 2.6 10.4 0.00 0.00 0.00 28 1004.4
20260902190027 96 161 4.3 12.2 0.00 0.00 0.00 30 1004.7
20260902184521 96 234 3.5 10.4 0.00 0.00 0.00 30 1004.9
20260902183022 95 211 2.6 10.4 0.00 0.00 0.00 32 1005.1
20260902181516 95 258 7.0 13.0 0.00 0.00 0.00 31 1005.5
20260902180012 95 160 4.3 10.4 0.00 0.00 0.00 33 1005.7
20260902174510 94 246 3.5 12.2 0.00 0.00 0.00 36 1005.9
20260902173009 94 227 3.5 9.6 0.00 0.00 0.00 37 1006.2
20260902171505 93 218 3.5 8.7 0.00 0.00 0.00 38 1006.4
20260902170002 92 235 6.1 11.3 0.00 0.00 0.00 39 1006.5
20260902164600 91 219 5.2 12.2 0.00 0.00 0.00 40 1006.6
20260902163057 90 209 4.3 10.4 0.00 0.00 0.00 40 1006.7
20260902161554 89 211 4.3 10.4 0.00 0.00 0.00 41 1006.8
20260902160107 88 228 6.1 10.4 0.00 0.00 0.00 41 1006.8